| time (UTC) | temp F | wind direction | speed knots | gust knots | rain 1hr in | rain 24hr in | rain mn in | humidity % | barometer mb |
| 20260510000040 | 88 | 27 | 2.6 | 7.0 | 0.00 | 0.00 | 0.00 | 9 | 1000.1 |
| 20260509234550 | 90 | 15 | 1.7 | 4.3 | 0.00 | 0.00 | 0.00 | 9 | 1000.2 |
| 20260509233050 | 89 | 53 | 0.0 | 1.7 | 0.00 | 0.00 | 0.00 | 9 | 1000.3 |
| 20260509231539 | 90 | 114 | 1.7 | 4.3 | 0.00 | 0.00 | 0.00 | 9 | 1000.3 |
| 20260509230037 | 91 | 17 | 1.7 | 9.6 | 0.00 | 0.00 | 0.00 | 9 | 1000.5 |
| 20260509224532 | 91 | 36 | 0.0 | 7.8 | 0.00 | 0.00 | 0.00 | 10 | 1000.5 |
| 20260509223026 | 91 | 326 | 1.7 | 6.1 | 0.00 | 0.00 | 0.00 | 10 | 1000.8 |
| 20260509221528 | 92 | 52 | 0.0 | 2.6 | 0.00 | 0.00 | 0.00 | 9 | 1001.1 |
| 20260509220019 | 92 | 160 | 0.0 | 4.3 | 0.00 | 0.00 | 0.00 | 10 | 1001.4 |
| 20260509214514 | 90 | 341 | 0.9 | 6.1 | 0.00 | 0.00 | 0.00 | 10 | 1001.7 |
| 20260509213013 | 90 | 97 | 0.0 | 3.5 | 0.00 | 0.00 | 0.00 | 9 | 1002.0 |
| 20260509211509 | 89 | 326 | 0.0 | 7.0 | 0.00 | 0.00 | 0.00 | 10 | 1002.3 |
| 20260509210007 | 90 | 6 | 1.7 | 7.8 | 0.00 | 0.00 | 0.00 | 9 | 1002.5 |
| 20260509204623 | 88 | 60 | 1.7 | 7.0 | 0.00 | 0.00 | 0.00 | 9 | 1002.8 |
| 20260509203021 | 88 | 39 | 4.3 | 10.4 | 0.00 | 0.00 | 0.00 | 10 | 1003.0 |
| 20260509201508 | 89 | 338 | 0.9 | 7.8 | 0.00 | 0.00 | 0.00 | 10 | 1003.2 |
| 20260509200004 | 88 | 89 | 0.0 | 7.8 | 0.00 | 0.00 | 0.00 | 11 | 1003.6 |
| 20260509194524 | 87 | 68 | 1.7 | 10.4 | 0.00 | 0.00 | 0.00 | 11 | 1003.7 |
| 20260509193019 | 87 | 359 | 0.0 | 5.2 | 0.00 | 0.00 | 0.00 | 11 | 1003.9 |
| 20260509191503 | 87 | 56 | 0.9 | 6.1 | 0.00 | 0.00 | 0.00 | 11 | 1004.0 |
| 20260509190002 | 87 | 32 | 3.5 | 7.0 | 0.00 | 0.00 | 0.00 | 12 | 1004.2 |
| 20260509184601 | 88 | 116 | 0.0 | 2.6 | 0.00 | 0.00 | 0.00 | 12 | 1004.4 |
| 20260509183058 | 87 | 65 | 0.9 | 7.0 | 0.00 | 0.00 | 0.00 | 13 | 1004.5 |
| 20260509183014 | 87 | 82 | 0.9 | 7.0 | 0.00 | 0.00 | 0.00 | 12 | 1004.5 |
| 20260509181602 | 86 | 29 | 0.0 | 7.0 | 0.00 | 0.00 | 0.00 | 13 | 1004.8 |
| 20260509180153 | 86 | 127 | 0.0 | 6.1 | 0.00 | 0.00 | 0.00 | 13 | 1005.0 |
| 20260509174539 | 85 | 103 | 0.9 | 7.0 | 0.00 | 0.00 | 0.00 | 13 | 1005.2 |
| 20260509173037 | 85 | 248 | 0.0 | 8.7 | 0.00 | 0.00 | 0.00 | 13 | 1005.2 |
| 20260509171530 | 84 | 100 | 1.7 | 7.0 | 0.00 | 0.00 | 0.00 | 14 | 1005.4 |
| 20260509170028 | 84 | 113 | 0.0 | 5.2 | 0.00 | 0.00 | 0.00 | 15 | 1005.3 |
| 20260509164601 | 82 | 98 | 0.0 | 5.2 | 0.00 | 0.00 | 0.00 | 15 | 1005.3 |
| 20260509163048 | 81 | 81 | 1.7 | 6.1 | 0.00 | 0.00 | 0.00 | 16 | 1005.3 |
| 20260509160138 | 79 | 75 | 0.9 | 4.3 | 0.00 | 0.00 | 0.00 | 19 | 1005.5 |
| 20260509154527 | 78 | 75 | 1.7 | 5.2 | 0.00 | 0.00 | 0.00 | 20 | 1005.6 |
| 20260509153023 | 77 | 87 | 0.9 | 5.2 | 0.00 | 0.00 | 0.00 | 22 | 1005.7 |
| 20260509150024 | 74 | 73 | 0.0 | 3.5 | 0.00 | 0.00 | 0.00 | 23 | 1005.8 |
| 20260509144524 | 73 | 70 | 0.9 | 3.5 | 0.00 | 0.00 | 0.00 | 25 | 1005.8 |
| 20260509143015 | 71 | 88 | 0.0 | 2.6 | 0.00 | 0.00 | 0.00 | 28 | 1005.9 |
| 20260509140017 | 65 | 150 | 0.0 | 0.0 | 0.00 | 0.00 | 0.00 | 36 | 1005.9 |
| 20260509134506 | 61 | 157 | 0.0 | 0.0 | 0.00 | 0.00 | 0.00 | 40 | 1005.7 |
| 20260509133105 | 59 | 157 | 0.0 | 0.0 | 0.00 | 0.00 | 0.00 | 40 | 1005.6 |
| 20260509130047 | 58 | 157 | 0.0 | 0.0 | 0.00 | 0.00 | 0.00 | 36 | 1005.4 |
| 20260509124524 | 59 | 156 | 0.0 | 0.0 | 0.00 | 0.00 | 0.00 | 34 | 1005.2 |
| 20260509123131 | 61 | 156 | 0.0 | 0.0 | 0.00 | 0.00 | 0.00 | 32 | 1005.1 |
| 20260509120023 | 63 | 124 | 0.0 | 0.0 | 0.00 | 0.00 | 0.00 | 29 | 1004.9 |
| 20260509113013 | 64 | 124 | 0.0 | 0.0 | 0.00 | 0.00 | 0.00 | 28 | 1005.0 |
| 20260509104557 | 65 | 118 | 0.0 | 0.0 | 0.00 | 0.00 | 0.00 | 28 | 1005.2 |
| 20260509103101 | 65 | 121 | 0.0 | 0.0 | 0.00 | 0.00 | 0.00 | 27 | 1005.1 |
| 20260509100012 | 62 | 120 | 0.0 | 0.0 | 0.00 | 0.00 | 0.00 | 29 | 1005.0 |
| 20260509094508 | 60 | 117 | 0.0 | 0.0 | 0.00 | 0.00 | 0.00 | 31 | 1005.0 |
| 20260509093009 | 59 | 114 | 0.0 | 0.0 | 0.00 | 0.00 | 0.00 | 31 | 1005.1 |
| 20260509090040 | 60 | 114 | 0.0 | 0.0 | 0.00 | 0.00 | 0.00 | 29 | 1005.0 |
| 20260509084520 | 60 | 113 | 0.0 | 0.0 | 0.00 | 0.00 | 0.00 | 28 | 1005.1 |
| 20260509083019 | 61 | 113 | 0.0 | 0.0 | 0.00 | 0.00 | 0.00 | 26 | 1005.2 |
| 20260509081511 | 62 | 113 | 0.0 | 0.0 | 0.00 | 0.00 | 0.00 | 26 | 1005.1 |
| 20260509080002 | 62 | 113 | 0.0 | 0.0 | 0.00 | 0.00 | 0.00 | 26 | 1005.1 |
| 20260509074601 | 62 | 113 | 0.0 | 0.0 | 0.00 | 0.00 | 0.00 | 26 | 1005.1 |
| 20260509073028 | 63 | 113 | 0.0 | 0.0 | 0.00 | 0.00 | 0.00 | 26 | 1005.1 |
| 20260509071524 | 63 | 113 | 0.0 | 0.0 | 0.00 | 0.00 | 0.00 | 24 | 1005.2 |
| 20260509070005 | 64 | 113 | 0.0 | 0.0 | 0.00 | 0.00 | 0.00 | 23 | 1005.2 |
| 20260509064612 | 64 | 113 | 0.0 | 0.0 | 0.00 | 0.00 | 0.00 | 23 | 1005.2 |
| 20260509063058 | 65 | 113 | 0.0 | 0.0 | 0.00 | 0.00 | 0.00 | 22 | 1005.3 |
| 20260509061613 | 66 | 113 | 0.0 | 0.0 | 0.00 | 0.00 | 0.00 | 21 | 1005.3 |
| 20260509060027 | 67 | 113 | 0.0 | 0.0 | 0.00 | 0.00 | 0.00 | 20 | 1005.4 |
| 20260509054520 | 68 | 113 | 0.0 | 0.0 | 0.00 | 0.00 | 0.00 | 20 | 1005.4 |
| 20260509053004 | 69 | 113 | 0.0 | 0.0 | 0.00 | 0.00 | 0.00 | 19 | 1005.4 |
| 20260509051503 | 69 | 113 | 0.0 | 0.0 | 0.00 | 0.00 | 0.00 | 19 | 1005.2 |
| 20260509050003 | 69 | 122 | 0.0 | 0.0 | 0.00 | 0.00 | 0.00 | 19 | 1005.2 |
| 20260509044604 | 69 | 122 | 0.0 | 0.0 | 0.00 | 0.00 | 0.00 | 19 | 1005.2 |
| 20260509043039 | 69 | 115 | 0.0 | 0.0 | 0.00 | 0.00 | 0.00 | 19 | 1005.2 |
| 20260509041536 | 70 | 110 | 0.0 | 0.0 | 0.00 | 0.00 | 0.00 | 19 | 1005.1 |
| 20260509040043 | 70 | 118 | 0.0 | 0.0 | 0.00 | 0.00 | 0.00 | 19 | 1004.9 |
| 20260509034529 | 70 | 117 | 0.0 | 0.0 | 0.00 | 0.00 | 0.00 | 19 | 1004.7 |
| 20260509033018 | 71 | 116 | 0.0 | 0.0 | 0.00 | 0.00 | 0.00 | 19 | 1004.6 |
| 20260509031521 | 72 | 116 | 0.0 | 0.0 | 0.00 | 0.00 | 0.00 | 18 | 1004.4 |
| 20260509030014 | 73 | 116 | 0.0 | 0.0 | 0.00 | 0.00 | 0.00 | 17 | 1004.2 |
| 20260509024509 | 75 | 116 | 0.0 | 0.0 | 0.00 | 0.00 | 0.00 | 17 | 1004.0 |
| 20260509023038 | 76 | 114 | 0.0 | 0.0 | 0.00 | 0.00 | 0.00 | 16 | 1003.8 |
| 20260509021528 | 77 | 99 | 0.0 | 2.6 | 0.00 | 0.00 | 0.00 | 15 | 1003.7 |
| 20260509020027 | 79 | 82 | 0.0 | 3.5 | 0.00 | 0.00 | 0.00 | 15 | 1003.4 |
| 20260509014523 | 80 | 83 | 0.9 | 7.0 | 0.00 | 0.00 | 0.00 | 14 | 1003.3 |
| 20260509013014 | 81 | 73 | 2.6 | 7.8 | 0.00 | 0.00 | 0.00 | 14 | 1003.2 |
| 20260509010012 | 83 | 93 | 0.0 | 4.3 | 0.00 | 0.00 | 0.00 | 12 | 1003.2 |
| 20260509004521 | 83 | 63 | 1.7 | 12.2 | 0.00 | 0.00 | 0.00 | 12 | 1003.2 |
| 20260509003103 | 84 | 54 | 1.7 | 8.7 | 0.00 | 0.00 | 0.00 | 11 | 1003.2 |
| 20260509001553 | 85 | 72 | 0.0 | 5.2 | 0.00 | 0.00 | 0.00 | 12 | 1003.2 |